SCP
1 0 0 1 1 1 1 1 1 1 2 2 3 4 5 5 4 4 4 5 6 7 8 8 8 7 6 7 12 16 18 17 15 11 8 7 6 5 4 4 3 3 4 4
1 0 1 1 1 1 1 1 2 2 2 3 3 5 5 5 4 5 5 5 6 7 7 8 7 7 6 7 10 14 17 17 15 11 8 7 6 5 5 4 4 3 3 4
1 1 1 1 1 1 1 2 2 2 3 3 4 4 5 5 6 6 6 6 6 6 7 8 8 7 7 8 9 12 14 15 14 11 8 7 6 6 6 5 4 4 3 3
1 1 1 1 1 1 2 2 3 3 3 3 3 4 6 7 8 8 8 7 7 7 8 8 8 7 7 7 8 10 11 12 12 11 9 8 7 7 7 7 5 4 3 3
1 1 1 1 1 1 2 2 3 3 3 2 3 5 9 11 10 8 8 9 10 9 9 9 8 7 7 7 8 9 10 11 11 10 10 9 9 9 9 8 7 5 4 4
1 1 1 1 1 1 2 3 3 4 4 3 3 6 11 12 11 10 10 11 11 10 9 9 8 8 8 8 9 9 9 9 9 9 10 10 11 10 10 10 8 6 5 5
1 1 1 1 1 1 2 3 4 5 5 4 4 7 9 11 12 12 12 11 11 10 10 10 9 8 9 9 9 8 8 8 8 8 9 10 11 11 10 10 9 7 6 6
1 1 1 2 2 2 3 5 5 5 5 5 5 6 8 11 14 14 12 11 10 10 11 11 10 8 7 8 8 7 7 7 7 8 8 9 9 8 8 9 9 8 8 8
2 2 2 3 3 3 3 4 4 4 4 4 4 5 8 13 14 12 10 9 9 10 10 10 9 6 5 6 5 5 6 7 7 7 7 7 6 5 5 6 6 7 7 7
2 2 2 2 2 2 2 2 3 4 4 3 4 5 9 11 10 8 7 6 6 7 8 8 7 5 4 4 4 5 6 7 7 6 6 5 5 3 3 3 3 3 4 4
2 2 2 2 2 2 1 2 3 4 4 4 4 5 7 7 6 5 4 4 4 4 5 5 5 4 3 4 5 6 7 6 5 4 4 3 3 2 1 1 1 1 1 1
2 2 2 2 2 1 2 2 3 3 3 4 4 3 3 3 3 3 3 3 3 3 4 5 4 3 4 4 6 7 7 5 4 2 2 2 1 1 1 0 0 0 0 0
1 2 2 2 1 1 1 2 2 2 3 3 3 2 2 2 2 2 2 2 2 2 3 5 4 3 4 4 5 6 5 4 2 2 2 2 2 1 1 0 0 0 0 0
1 1 1 1 1 1 1 1 1 2 2 2 2 2 1 1 1 1 1 2 2 2 3 5 5 4 4 4 5 4 3 3 2 2 2 3 2 2 1 1 1 1 0 0
1 1 1 1 1 1 1 1 1 2 2 2 1 1 1 1 1 1 1 1 1 2 3 5 5 4 4 4 4 4 3 3 3 3 3 3 3 2 2 1 1 1 1 1
1 1 0 0 0 1 1 1 1 1 1 1 1 1 1 1 1 1 1 1 1 2 3 4 5 5 4 4 4 3 3 2 2 3 3 3 3 2 2 1 1 1 1 1
1 0 0 0 0 0 1 1 1 1 1 1 1 1 1 2 2 1 1 1 1 2 2 3 4 4 4 4 4 3 2 2 2 2 3 3 3 2 1 1 1 1 1 1
0 0 0 0 0 0 1 1 2 2 1 1 1 1 2 3 2 1 1 1 1 2 2 2 2 3 3 4 4 3 3 2 2 3 3 3 2 2 1 1 1 1 1 1
1 1 0 0 0 1 1 1 2 2 1 1 1 1 1 2 2 2 2 2 2 2 2 1 1 2 2 3 3 3 3 2 2 3 3 2 2 1 1 1 1 1 1 1
1 1 0 0 0 1 1 2 2 2 1 1 0 0 1 1 2 2 2 1 1 2 2 2 2 2 2 2 2 2 2 2 2 2 2 2 2 2 1 1 1 1 1 1
1 1 1 0 0 1 1 2 2 2 1 0 0 0 0 1 1 1 1 1 1 1 1 2 2 2 1 1 1 1 1 1 1 1 2 2 2 2 1 1 0 0 0 0
1 1 1 1 1 1 2 2 2 1 1 0 0 0 0 0 0 0 0 0 0 0 1 1 1 1 1 1 1 1 1 1 1 1 1 1 1 1 1 0 0 0 0 0
2 2 1 1 1 2 2 2 1 1 0 0 0 0 0 0 0 0 0 0 0 0 0 0 0 0 0 0 0 0 0 0 0 0 1 1 0 0 0 0 0 0 0 0
2 2 2 2 2 2 2 2 1 1 0 0 0 0 0 0 0 0 0 0 0 0 0 0 0 0 0 0 0 0 0 0 0 0 0 0 0 0 0 0 0 0 1 1
3 3 3 3 3 2 2 1 1 1 0 0 0 0 0 0 0 0 0 0 0 0 0 0 0 0 0 0 0 0 0 0 0 0 0 0 0 0 0 0 0 1 1 1
3 3 4 4 3 2 2 1 1 0 0 0 0 0 0 0 0 0 0 0 0 0 0 0 0 0 0 0 0 0 0 0 0 0 0 0 0 0 0 0 0 0 0 0
3 3 4 4 3 2 1 1 1 0 0 0 0 0 0 0 0 0 0 0 0 0 0 0 0 0 0 0 0 0 0 0 0 0 0 0 0 0 0 0 0 0 0 0
Wind_Speed
12 12 11 10 10 10 10 10 9 8 6 2 3 2 2 3 3 4 5 6 5 5 4 3 3 2 3 3 3 3 3 3 3 2 1 1 1 2 3 3 3 3 3 2
11 11 11 12 11 11 11 11 9 8 4 1 4 4 3 3 3 3 5 5 5 4 4 4 3 3 2 2 2 2 2 3 3 3 2 1 1 2 2 2 2 2 2 2
10 10 10 12 10 8 5 5 4 4 3 1 3 4 3 3 3 3 3 4 4 4 3 3 3 2 3 2 2 2 3 3 3 3 3 3 3 2 2 2 1 1 1 2
8 10 12 6 5 6 4 4 2 1 1 2 2 3 3 4 4 4 3 2 2 2 3 3 3 3 2 2 2 2 2 3 2 2 2 2 2 1 1 1 1 2 2 2
7 9 9 5 6 6 3 2 5 4 3 1 1 2 4 5 4 4 2 2 1 2 2 2 3 3 3 2 2 2 2 2 2 2 2 1 1 1 1 2 2 2 2 2
7 8 8 5 7 5 2 1 6 5 5 4 0 0 2 4 4 4 3 2 2 2 2 2 2 2 2 2 1 1 1 1 1 1 1 1 1 1 1 2 3 3 2 2
8 8 6 5 8 5 2 2 7 8 6 4 3 2 1 3 5 5 4 3 2 3 2 2 2 2 2 1 1 0 0 1 0 0 1 1 1 1 2 2 2 2 2 1
6 7 4 6 5 4 3 4 6 6 5 5 5 4 3 5 5 4 4 4 3 3 2 2 3 2 2 1 1 0 1 1 1 1 1 0 0 1 1 1 2 2 2 2
1 0 3 5 5 4 3 4 4 4 4 4 3 3 4 5 4 4 4 3 3 3 3 3 2 2 2 2 1 1 1 2 1 1 1 0 0 1 2 1 1 1 1 1
0 1 1 4 5 5 4 3 3 3 3 2 2 2 4 4 4 3 4 3 3 3 3 2 2 3 2 1 1 1 1 1 1 1 0 0 0 1 1 2 2 1 1 1
2 2 2 3 4 4 5 5 4 3 3 1 1 3 3 3 3 3 3 3 2 3 2 2 2 2 2 1 1 1 1 1 1 1 1 0 1 1 1 1 1 1 2 2
2 2 2 2 3 5 5 6 5 4 4 2 2 3 3 3 3 2 2 2 2 2 2 2 2 2 2 1 1 1 1 1 1 1 1 1 1 1 3 1 1 1 1 1
3 4 4 5 4 4 4 5 4 3 3 1 3 3 2 3 2 2 2 2 2 2 2 1 2 2 2 1 1 1 0 1 1 1 1 1 1 1 1 0 1 1 1 1
2 2 4 5 5 5 5 4 4 2 2 2 3 2 2 2 2 2 2 2 1 1 1 1 2 2 2 1 0 0 1 1 2 1 1 1 1 1 1 1 1 1 2 3
2 2 3 4 4 5 4 4 3 3 3 2 3 2 2 2 1 1 1 1 1 1 1 1 2 2 1 1 1 1 2 1 2 2 2 1 1 1 1 1 1 1 1 2
2 3 3 3 4 5 6 5 4 3 2 3 2 2 2 1 1 1 1 0 0 0 1 1 1 1 1 1 0 1 1 2 2 3 2 2 1 1 1 1 1 1 2 2
3 3 3 3 3 4 4 4 3 3 2 3 3 2 1 1 1 0 0 1 1 1 1 1 1 1 1 1 2 2 1 1 2 2 2 2 2 2 2 2 2 1 1 2
4 4 3 3 3 3 3 3 3 2 2 1 2 2 1 1 1 1 1 0 1 1 1 0 1 2 1 2 2 2 2 2 1 2 2 2 3 3 2 2 2 3 2 1
5 4 3 4 3 4 4 4 3 3 3 2 2 2 2 2 2 2 1 1 1 1 1 2 1 2 2 1 2 2 3 2 2 1 1 2 2 3 2 2 3 3 2 1
5 5 5 4 4 4 4 4 3 3 2 2 2 2 2 3 3 3 2 2 1 1 1 1 2 2 2 0 2 3 3 2 2 2 2 2 2 3 3 3 3 3 2 2
5 5 5 5 5 4 4 4 3 3 3 2 3 3 3 3 3 3 3 2 2 2 1 1 2 2 2 2 3 4 3 2 2 2 2 2 3 3 3 3 3 3 2 2
5 6 6 5 4 4 4 3 3 3 3 3 3 3 3 3 3 3 3 2 2 1 1 2 2 1 2 4 4 4 3 2 1 1 1 2 2 3 2 3 3 3 2 2
4 5 5 5 4 4 4 4 4 3 3 3 3 3 4 4 3 3 3 2 1 1 2 2 1 1 2 4 4 3 2 2 1 1 1 2 2 2 2 2 2 2 2 2
5 4 5 4 4 4 4 4 3 2 2 3 3 3 3 3 3 3 2 1 0 1 2 1 0 2 3 3 3 3 2 2 1 1 1 2 2 2 2 2 2 2 2 3
4 4 4 4 3 3 3 3 2 2 2 2 2 3 3 3 3 3 3 2 1 2 2 1 2 3 3 3 3 2 2 2 2 2 2 2 2 3 2 2 2 2 2 3
3 3 3 3 3 3 3 2 2 2 2 2 2 2 2 2 2 3 2 2 2 2 2 2 1 2 2 2 3 3 2 1 1 1 1 2 2 3 3 2 3 2 3 3
3 2 2 2 2 2 3 3 3 2 2 2 2 3 3 3 3 3 3 2 2 2 2 2 2 2 2 2 2 3 2 2 2 3 2 2 3 3 3 3 3 3 2 2
Wind_Direction
267 274 272 271 270 270 258 260 255 249 244 215 158 160 138 108 112 124 124 121 123 128 124 127 130 139 146 156 162 161 160 167 169 158 161 183 186 192 190 199 216 218 219 223
269 267 267 272 265 262 259 256 256 259 259 185 124 123 125 124 123 139 135 134 138 135 137 143 152 165 159 156 161 159 163 176 166 161 168 198 215 199 196 209 221 215 219 237
267 268 269 266 274 265 262 269 258 267 288 81 98 108 137 133 114 104 103 134 144 146 145 152 162 165 171 165 167 169 183 181 170 171 183 203 223 216 210 214 219 226 215 221
268 266 254 259 286 276 249 280 318 281 311 39 73 98 91 84 87 82 72 75 107 136 146 155 164 154 155 160 179 195 189 179 169 180 191 210 223 238 224 213 221 230 228 224
265 261 257 269 300 293 274 312 345 348 345 38 96 114 100 86 83 90 78 59 71 119 144 148 151 149 154 166 188 195 176 155 173 199 194 207 235 238 235 224 227 226 225 221
260 262 261 291 311 311 262 280 4 7 8 356 22 232 79 73 77 83 77 69 68 117 123 126 128 136 150 158 165 196 200 160 174 194 200 224 241 248 258 245 238 231 230 226
247 253 263 322 326 314 262 5 9 17 24 357 11 46 43 72 76 80 75 69 75 101 112 115 117 125 138 137 139 230 277 103 106 306 230 214 246 249 248 255 250 235 224 220
247 250 261 1 6 29 33 15 16 12 17 25 44 73 89 86 82 81 74 67 70 89 100 102 117 131 138 136 135 141 117 92 74 40 308 343 306 254 246 236 248 232 216 215
333 321 53 41 59 68 49 16 6 9 22 40 50 57 86 94 88 82 75 68 72 77 93 98 104 108 124 112 102 92 82 86 83 71 26 359 314 297 273 244 242 247 228 224
357 97 82 55 50 40 35 7 355 6 19 44 55 75 78 86 85 80 83 79 73 79 80 88 95 95 94 98 88 90 99 104 130 140 134 335 296 282 324 323 306 295 299 280
269 315 18 56 33 16 0 352 356 5 12 47 104 87 76 76 73 77 81 81 80 81 82 83 84 86 100 104 110 113 121 152 186 175 145 77 33 359 358 22 339 324 323 316
335 6 350 344 344 355 350 339 338 344 359 10 97 81 71 78 73 66 74 74 82 83 87 89 101 96 90 95 114 133 188 217 224 197 177 169 156 45 34 63 95 85 340 302
342 354 344 315 325 335 315 308 319 331 344 358 85 89 81 88 84 74 73 77 79 88 95 103 123 127 117 120 129 120 334 294 272 241 215 202 190 188 196 316 356 332 286 271
360 343 305 314 335 330 321 319 322 332 348 48 77 80 74 82 84 84 75 68 60 65 83 102 114 103 103 100 88 200 259 258 263 259 255 220 201 222 226 202 215 254 261 248
324 332 339 344 346 339 334 342 0 22 37 73 83 68 51 70 82 62 69 81 46 31 48 51 86 88 82 78 59 322 303 306 311 306 290 270 236 233 258 270 265 243 214 236
333 356 356 350 346 346 347 355 353 2 32 44 48 53 42 25 95 65 18 233 260 7 34 24 48 70 79 64 321 265 273 296 300 299 294 283 289 279 256 251 248 242 244 238
355 341 330 329 333 335 344 350 352 355 9 38 20 20 27 353 329 129 174 322 346 22 26 31 31 47 10 309 277 271 275 267 269 286 297 319 323 314 310 301 295 285 262 243
2 351 337 325 322 329 333 345 350 346 340 2 5 10 7 335 314 316 299 342 350 341 324 47 40 355 315 302 302 299 294 279 261 284 306 316 316 310 316 321 318 311 293 256
359 354 348 342 340 329 333 342 342 333 331 347 348 345 334 324 316 309 302 292 281 281 351 38 20 291 290 357 323 295 303 306 298 286 294 314 304 305 314 309 310 311 314 312
359 355 347 341 333 332 336 341 338 328 330 337 337 337 328 326 320 313 307 296 308 343 351 19 300 290 280 30 318 297 299 303 308 332 320 304 303 309 309 310 319 328 334 342
348 343 339 337 336 330 329 333 333 324 325 326 321 315 309 309 310 314 304 305 339 358 311 282 275 291 312 329 285 282 282 282 287 290 288 300 309 309 318 334 333 337 339 344
339 336 335 336 335 332 332 325 319 310 314 312 307 303 302 302 301 294 293 300 310 19 298 293 299 344 330 303 283 280 284 286 303 312 321 320 318 322 326 330 334 334 340 346
330 328 326 325 325 322 320 317 318 317 317 312 309 306 302 301 295 291 295 302 296 269 272 306 353 15 327 295 287 283 291 297 298 305 318 316 311 317 325 321 326 333 338 339
330 328 328 330 328 321 314 309 305 303 302 302 302 303 296 288 286 285 282 283 292 243 285 352 164 280 281 283 289 288 292 287 284 301 322 329 328 331 338 336 330 338 350 338
325 326 325 326 321 317 314 308 292 274 271 277 281 289 290 290 289 296 300 294 265 247 281 243 222 239 260 281 288 296 317 338 336 330 343 352 345 338 342 346 348 350 348 335
328 330 340 339 336 326 311 301 297 298 300 309 316 321 318 314 312 314 311 302 306 299 294 294 284 273 284 294 305 316 344 352 331 330 6 4 3 354 352 353 350 349 339 334
327 333 332 334 325 317 316 317 315 315 322 336 342 335 328 326 325 327 326 317 313 308 308 315 314 309 316 323 322 327 341 347 4 19 15 15 15 3 357 350 348 351 345 342